This is the latest recevied weather packets stored in our database for station/object K4WCH. If no packets are shown the sender has not sent any weather packets the latest 10 day(s).
| Time | Temp. | Humidity | Pressure | Rain* | Wind** | Luminosity | Snow |
|---|---|---|---|---|---|---|---|
| 1788449077 | 27.22° C | 87% | 1016.1 hPa | 0 mm | - | 232 W/m² | - |
| 1788448773 | 27.22° C | 86% | 1016.2 hPa | 0 mm | - | 205 W/m² | - |
| 1788448472 | 27.22° C | 87% | 1016.2 hPa | 0 mm | - | 204 W/m² | - |
| 1788448168 | 27.22° C | 89% | 1016.2 hPa | 0 mm | - | 240 W/m² | - |
| 1788447862 | 27.22° C | 89% | 1016.2 hPa | 0 mm | - | 275 W/m² | - |
| 1788447557 | 27.22° C | 89% | 1016.1 hPa | 0 mm | - | 292 W/m² | - |
| 1788447253 | 26.67° C | 91% | 1016.2 hPa | 0 mm | - | 292 W/m² | - |
| 1788446952 | 26.67° C | 91% | 1016.1 hPa | 0 mm | - | 291 W/m² | - |
| 1788446647 | 26.67° C | 90% | 1016.1 hPa | 0 mm | - | 256 W/m² | - |
| 1788446342 | 26.67° C | 91% | 1016.1 hPa | 0 mm | - | 234 W/m² | - |
| 1788446039 | 26.67° C | 91% | 1016 hPa | 0 mm | - | 216 W/m² | - |
| 1788445739 | 26.67° C | 92% | 1016.1 hPa | 0 mm | - | 198 W/m² | - |
| 1788445435 | 26.11° C | 91% | 1015.9 hPa | 0 mm | - | 192 W/m² | - |
| 1788445131 | 26.11° C | 91% | 1015.9 hPa | 0 mm | - | 173 W/m² | - |
| 1788444827 | 26.11° C | 91% | 1015.8 hPa | 0 mm | - | 174 W/m² | - |
| 1788444522 | 26.11° C | 91% | 1016 hPa | 0 mm | - | 159 W/m² | - |
| 1788444217 | 26.11° C | 90% | 1015.8 hPa | 0 mm | - | 134 W/m² | - |
| 1788443912 | 26.11° C | 90% | 1016 hPa | 0 mm | - | 126 W/m² | - |
| 1788443608 | 26.11° C | 90% | 1015.8 hPa | 0 mm | - | 143 W/m² | - |
| 1788443306 | 26.67° C | 88% | 1015.9 hPa | 0 mm | - | 155 W/m² | - |
| 1788443002 | 26.67° C | 89% | 1015.8 hPa | 0 mm | - | 147 W/m² | - |
| 1788442700 | 26.67° C | 89% | 1015.6 hPa | 0 mm | - | 170 W/m² | - |
| 1788442396 | 26.11° C | 89% | 1015.5 hPa | 0 mm | - | 183 W/m² | - |
| 1788442096 | 26.11° C | 89% | 1015.5 hPa | 0 mm | - | 178 W/m² | - |
| 1788441792 | 26.11° C | 89% | 1015.5 hPa | 0 mm | - | 184 W/m² | - |
* Rain latest hour (hover to see other rain measurements)
** Current wind speed in m/s (hover to see current wind gust speed)